Wind_Speed
12 13 15 16 16 16 17 18 20 17 11 9 10 9 11 13 13 14 11 8 7 9 11 12 14 15 15 16 16 16 15 15 17 18 21 21 20 20 20 20 21 24 22 19 20 21 20 20 19 18 17 16 15 16 18 17 13 13 14 16 19 20 21 22 22 24 26 27 26 25 26 24 21 21 21 21 21 20 19 18 16 14 12 11 10 10
13 15 16 16 15 14 13 15 19 16 9 9 12 12 13 14 15 13 11 9 8 10 13 13 14 15 15 16 16 17 17 16 18 19 21 23 23 22 21 21 22 24 24 22 21 22 22 21 20 20 19 18 17 18 20 19 13 11 13 15 17 19 19 20 21 23 26 27 25 25 27 25 22 22 21 21 22 22 21 20 17 14 12 11 10 10
13 16 17 15 13 13 11 10 14 14 10 12 15 16 16 15 16 15 11 9 10 12 14 13 14 15 13 15 17 18 20 19 18 20 21 22 24 24 23 23 22 22 24 25 23 22 22 22 22 22 20 20 20 19 21 21 15 11 12 14 16 17 16 15 17 21 23 25 26 27 28 26 25 24 23 23 23 23 22 19 16 13 11 11 10 10
13 14 15 16 13 12 12 11 11 11 12 15 16 17 19 17 16 17 12 9 10 12 13 13 14 17 16 17 20 20 21 21 20 21 22 23 24 26 26 24 23 22 24 27 26 23 21 21 23 24 22 22 22 21 22 22 17 13 13 15 15 15 14 13 15 19 21 23 26 28 29 28 26 24 24 23 22 22 19 15 13 11 10 10 10 11
13 8 8 12 11 11 12 12 12 12 13 15 17 18 18 17 17 16 12 9 10 12 15 17 18 21 21 22 24 23 22 22 22 22 22 22 23 25 26 25 24 23 23 26 28 25 21 19 22 25 24 23 24 23 23 23 19 16 15 15 15 15 14 13 14 17 21 21 23 27 29 28 25 23 23 22 20 18 14 11 10 9 10 10 10 11
16 11 9 10 10 11 13 13 14 14 14 14 16 20 20 18 17 15 14 14 14 14 15 18 17 17 20 23 23 22 22 22 22 22 23 23 22 22 24 25 26 25 23 26 29 26 23 19 20 24 26 25 25 24 25 25 20 16 17 16 17 17 15 14 14 16 19 20 23 26 28 27 24 23 23 21 18 15 11 10 11 10 10 10 11 11
16 12 11 12 11 12 13 14 15 14 15 15 13 15 17 17 17 16 16 16 17 15 11 12 13 13 16 18 16 16 17 18 19 20 22 22 22 22 23 24 26 27 25 26 30 28 26 23 20 23 27 27 26 26 26 26 22 20 21 20 20 19 16 16 15 14 16 19 24 26 26 24 23 23 22 19 17 15 13 14 13 12 11 11 11 11
17 13 9 11 12 13 14 15 15 14 15 15 10 8 11 14 15 15 16 17 18 17 13 13 15 16 18 17 14 14 16 15 16 19 20 20 19 18 18 19 22 25 26 28 32 30 27 25 21 22 26 28 29 28 28 28 26 24 23 21 21 19 17 17 16 14 14 18 22 24 24 24 25 24 20 19 19 19 18 17 15 13 13 12 11 11
14 15 11 11 13 14 15 13 12 14 16 14 9 7 9 11 12 13 14 16 17 17 18 17 17 16 17 19 16 14 15 15 16 16 15 16 20 22 20 18 19 21 23 29 34 35 31 27 23 23 25 29 31 30 31 31 26 24 23 18 18 19 17 16 15 13 14 17 20 21 23 25 25 23 21 21 21 21 20 19 16 14 14 14 13 13
8 14 13 12 15 14 13 13 12 12 14 13 9 8 10 10 12 13 14 17 17 16 18 19 18 14 12 17 17 14 15 16 15 14 15 17 22 25 23 22 23 22 21 27 32 34 32 28 25 26 28 30 32 32 33 31 25 23 21 15 16 19 16 14 13 14 16 16 17 21 23 24 24 24 24 23 21 21 20 18 17 17 16 15 14 14
9 12 12 13 14 13 12 13 14 15 14 12 9 10 12 13 14 14 14 16 15 13 17 20 21 17 12 13 13 9 11 13 10 11 16 20 22 23 20 21 24 22 21 25 28 29 28 27 27 29 31 31 32 33 31 28 26 24 20 15 15 17 16 13 13 13 14 13 15 20 23 23 24 25 26 23 22 22 20 18 18 18 17 15 14 14
15 13 12 14 14 12 11 12 13 14 15 14 12 12 13 14 14 14 14 15 11 10 16 19 20 18 13 11 8 3 5 11 9 7 10 14 17 18 17 16 17 17 22 29 31 30 26 27 30 32 33 33 33 32 28 27 27 23 19 14 13 18 19 15 13 13 13 14 15 19 21 23 24 24 25 24 23 22 20 20 20 18 16 15 14 13
19 16 13 12 14 14 12 12 13 13 15 16 15 15 14 11 10 10 10 11 10 12 15 13 12 14 13 12 9 4 3 8 11 13 14 14 15 15 13 12 12 15 22 27 29 29 27 29 32 33 33 33 32 30 26 26 25 21 18 14 12 18 20 15 13 12 14 16 15 18 22 25 27 26 26 26 23 21 20 20 19 16 15 14 13 12
18 18 16 15 16 16 16 15 14 13 16 18 18 17 14 9 7 8 7 8 10 13 14 11 8 10 12 9 8 8 7 9 14 18 21 21 19 17 12 10 11 14 17 18 21 25 27 29 32 32 32 31 30 28 25 24 23 20 18 15 14 19 18 14 13 11 12 15 14 18 24 27 29 28 28 27 24 22 21 19 17 16 15 13 12 12
16 15 17 19 17 16 18 19 15 12 14 18 18 17 17 13 9 7 6 6 7 9 11 10 8 9 10 8 9 9 7 9 13 17 20 20 20 17 12 9 9 11 14 14 17 21 24 27 30 30 29 28 28 27 25 23 21 19 18 16 17 18 14 11 13 11 11 13 13 17 22 26 29 28 28 27 24 23 22 20 18 16 15 14 13 12
17 13 13 17 17 15 18 19 17 15 14 15 17 18 18 16 13 10 9 7 8 9 6 8 10 11 8 4 6 6 4 4 6 10 14 16 16 12 7 6 6 7 10 10 14 19 23 26 27 25 23 24 26 26 25 23 20 19 18 18 19 17 12 10 12 12 11 12 13 18 22 25 28 28 28 27 25 23 23 21 19 17 15 14 13 12
15 12 9 13 15 15 17 18 18 19 14 11 15 19 18 14 13 13 11 10 10 9 8 10 11 13 10 4 4 5 4 3 5 8 9 7 7 5 4 4 4 5 8 10 14 19 23 24 24 23 23 25 26 26 24 22 20 19 19 19 19 16 12 11 11 11 11 12 15 20 24 26 29 29 28 28 26 25 24 21 19 17 14 13 11 10
11 11 9 12 14 15 15 15 17 21 18 13 13 14 14 13 13 12 9 8 8 7 9 13 14 14 10 4 5 6 5 3 5 7 6 4 6 6 6 7 6 6 8 10 13 16 17 18 18 20 24 26 26 25 23 22 21 20 20 20 20 16 13 13 13 13 12 15 20 24 26 29 30 28 27 28 27 26 24 22 19 16 13 11 10 9
10 12 11 13 14 14 14 14 16 19 21 19 14 10 11 12 12 13 10 8 8 7 8 11 13 11 3 4 5 7 6 4 3 3 5 9 10 8 5 6 7 8 8 7 8 9 9 12 16 20 24 25 26 25 23 22 22 21 21 21 20 17 15 17 17 15 14 18 25 27 28 31 31 27 26 27 27 25 24 22 19 16 14 12 9 8
9 11 11 12 13 13 14 16 17 18 19 21 18 13 13 13 10 11 11 10 10 8 6 9 10 3 4 4 4 5 4 3 3 5 10 12 9 5 3 3 5 8 8 8 8 7 6 10 15 21 23 23 23 23 23 25 25 23 22 22 21 18 17 19 19 16 16 20 27 29 30 33 32 27 26 27 27 26 23 21 19 17 14 12 9 7
11 11 12 12 12 13 16 17 17 16 17 19 20 18 16 16 13 11 11 13 12 7 4 7 6 4 6 3 2 3 5 4 5 7 8 6 5 4 3 0 1 3 5 7 9 9 8 8 11 15 19 21 23 24 25 27 27 25 23 23 22 20 19 20 19 16 17 22 29 32 33 34 32 29 29 29 28 25 23 21 19 17 14 12 9 7
13 13 12 12 13 15 16 15 14 15 15 17 19 20 20 19 17 12 10 13 14 11 8 10 5 4 4 3 3 5 6 2 4 5 3 2 3 3 1 1 2 2 2 3 5 7 8 7 7 10 15 19 21 24 27 28 28 27 26 24 23 22 22 21 19 17 18 24 30 32 33 34 33 31 29 28 26 24 22 21 19 17 15 13 10 9
13 13 12 12 13 16 15 11 10 12 13 14 15 16 18 20 20 16 11 11 16 15 12 14 7 6 6 5 5 6 5 3 5 5 3 2 2 2 1 1 2 4 6 5 3 3 5 6 8 11 15 18 19 21 25 28 29 29 28 27 26 25 24 20 18 17 20 25 31 33 34 34 34 32 30 28 26 24 22 21 20 18 16 14 12 10
12 12 13 13 13 16 16 12 12 12 13 15 15 14 15 16 17 17 13 11 15 13 8 11 5 6 7 6 5 6 8 8 8 4 2 3 2 2 3 4 4 6 7 8 6 4 4 7 9 12 17 19 21 22 24 27 29 29 29 29 26 25 24 21 19 19 23 27 31 35 35 35 35 34 32 30 27 25 23 22 21 18 16 15 13 11
10 9 12 12 9 11 13 13 14 14 14 15 13 14 15 14 14 16 15 13 13 11 9 6 2 3 5 3 3 6 8 8 7 5 3 4 4 4 5 7 6 6 7 8 8 6 6 8 11 13 17 20 23 24 26 28 30 30 30 27 23 25 26 22 19 22 26 29 32 35 35 35 36 36 33 31 29 26 24 23 21 19 18 17 15 12
7 9 12 10 7 6 6 8 11 11 11 10 9 12 14 12 12 13 14 15 13 12 13 9 2 3 2 1 1 3 6 5 5 5 2 3 5 5 5 7 6 6 7 8 8 8 9 10 11 12 15 20 23 25 26 28 31 31 27 23 22 26 26 22 22 25 27 27 30 34 34 34 35 34 32 31 29 26 25 24 23 21 20 18 16 14
6 10 13 12 11 10 5 3 7 10 11 9 7 9 9 9 9 8 10 13 12 10 8 3 3 4 1 3 2 4 7 6 4 5 3 2 3 4 5 5 5 5 6 6 6 7 9 11 12 13 16 19 22 24 24 25 27 29 27 23 23 26 25 22 25 27 24 22 26 31 32 32 31 30 32 32 29 27 26 25 24 22 20 19 17 16
7 10 12 12 14 13 7 2 2 6 10 9 8 9 10 10 8 6 8 11 10 9 5 2 5 4 3 7 10 12 12 8 5 5 5 4 3 3 4 5 4 5 6 6 6 7 9 12 14 14 17 19 21 24 25 24 25 28 29 24 21 23 24 23 24 26 26 24 28 31 31 31 31 31 32 33 30 28 26 24 23 21 20 20 19 18
8 10 11 12 12 11 7 4 3 4 6 7 6 7 9 9 8 6 5 6 6 6 6 3 1 4 7 11 15 17 14 8 3 2 3 4 4 4 5 5 6 7 8 8 9 10 12 14 16 16 16 17 18 21 26 27 27 29 30 27 23 23 24 25 25 27 27 27 29 30 31 33 35 35 34 33 31 28 27 25 23 22 22 22 21 20
9 9 9 10 10 9 6 5 6 5 4 4 3 4 7 7 6 5 3 4 3 2 3 4 7 11 12 12 13 15 14 8 4 5 6 6 5 4 5 7 8 9 9 9 10 11 14 15 15 15 15 17 18 19 23 27 29 30 30 27 26 26 26 26 28 29 28 29 30 30 32 34 35 36 35 32 30 29 27 25 23 23 24 23 22 22
10 10 8 8 9 8 4 3 5 4 4 3 1 3 5 4 4 4 4 4 2 1 2 3 4 8 12 12 11 13 11 7 5 7 8 7 5 5 5 7 9 9 8 7 7 8 10 11 11 11 13 14 16 17 20 24 27 31 32 28 25 27 28 27 29 30 31 31 30 30 32 34 34 33 33 32 31 30 28 27 25 24 24 24 24 23
11 11 8 8 10 10 6 4 4 4 5 5 2 3 6 4 4 4 4 4 2 3 2 1 1 4 9 10 11 10 7 5 5 5 5 5 4 5 6 7 9 8 5 4 5 5 5 6 7 8 9 9 10 14 18 20 20 25 32 30 25 25 28 27 27 29 31 31 31 31 33 35 34 33 33 32 31 30 29 29 29 28 26 25 24 24
9 9 10 11 12 10 9 7 5 5 6 4 3 5 5 4 4 2 2 5 2 3 4 3 3 7 7 8 10 8 8 8 6 5 5 5 5 6 6 7 7 6 4 3 4 4 2 2 3 4 6 6 7 11 14 12 9 12 20 25 24 24 24 23 22 23 25 27 30 31 32 33 33 31 30 30 29 29 30 30 30 30 29 27 26 26
8 10 12 13 12 8 10 10 6 6 5 2 0 3 3 4 6 4 5 7 3 4 4 2 5 8 7 9 11 9 9 9 6 5 6 7 7 7 6 6 5 4 3 2 1 1 1 1 1 2 3 4 5 7 7 5 4 7 9 12 15 18 20 20 19 20 21 22 24 26 27 28 29 30 29 29 27 27 28 29 30 32 31 30 30 29
8 9 10 13 14 8 9 10 6 4 3 4 2 2 3 4 4 3 5 6 3 3 2 2 5 7 6 10 11 9 9 8 6 6 7 8 9 7 6 6 6 5 4 3 3 2 2 3 2 1 2 2 2 4 5 3 4 8 9 7 7 9 14 17 19 20 20 20 21 22 23 23 25 26 27 27 26 26 28 29 30 33 32 31 31 31
10 10 9 11 13 9 8 8 4 3 5 4 0 1 2 3 3 2 3 4 3 4 5 5 5 6 5 9 10 9 7 7 8 9 9 11 11 9 9 9 9 8 7 7 6 6 6 5 4 3 3 4 4 4 4 4 2 2 7 10 9 9 11 14 16 18 19 21 22 23 23 23 24 24 24 25 26 27 28 28 31 32 32 31 32 32
10 10 9 9 10 10 4 4 7 8 7 3 2 2 2 2 2 3 3 4 4 5 6 6 4 5 5 7 9 9 7 6 8 10 11 13 13 11 10 10 10 10 10 9 9 9 9 8 6 6 5 6 7 6 4 4 1 2 1 4 7 10 12 14 16 18 20 22 23 23 22 21 21 21 22 23 25 26 25 27 30 31 30 30 31 31
11 11 10 8 8 9 5 4 7 6 5 4 3 3 3 2 1 2 3 3 5 5 6 5 4 4 6 8 9 10 9 8 11 13 13 12 13 13 11 11 11 11 10 11 10 9 9 9 9 9 8 7 6 5 3 2 1 1 1 1 1 4 8 12 16 18 19 17 16 17 16 15 15 17 19 21 24 26 26 28 30 29 25 24 24 25
14 11 9 9 10 10 8 4 2 3 4 3 3 3 3 3 2 1 2 1 5 7 5 5 5 6 8 9 12 13 13 13 15 16 15 14 15 15 14 13 14 14 13 12 11 11 11 11 10 10 9 9 8 6 7 7 6 4 2 2 4 5 5 7 10 14 15 13 12 13 13 13 15 17 19 20 21 22 23 23 22 20 17 16 16 16
10 9 10 13 13 9 5 1 3 6 5 2 2 2 2 3 2 1 1 2 8 9 6 6 7 8 10 10 13 15 15 15 17 17 18 20 20 19 18 18 19 18 17 15 14 14 14 13 12 9 8 10 12 12 12 11 10 9 9 9 9 8 8 9 10 11 12 12 11 10 10 11 12 12 14 15 15 15 14 13 12 12 12 11 11 11
3 6 8 9 8 5 3 6 8 7 6 4 4 2 1 2 3 2 3 6 9 8 6 6 8 11 11 11 13 15 14 15 18 19 21 22 22 23 23 22 22 21 20 18 17 15 13 12 11 9 8 9 11 12 13 13 11 10 12 13 12 11 12 12 12 12 11 10 8 7 6 7 7 7 8 10 11 11 9 7 7 9 10 11 11 11
0 2 5 3 3 4 6 10 10 8 6 5 4 2 1 1 2 3 3 3 4 4 2 3 7 9 9 10 13 13 13 15 18 19 20 20 19 19 19 19 18 18 18 19 19 18 15 13 10 8 7 8 9 9 10 11 11 10 11 11 11 11 12 12 11 10 9 9 8 7 7 7 7 8 8 9 10 10 8 6 6 7 9 10 10 9
3 3 2 4 4 3 6 9 7 5 6 4 3 2 1 2 3 3 4 5 7 7 6 3 1 3 5 7 10 10 11 15 18 17 15 14 13 12 12 11 10 10 10 11 13 14 15 13 11 8 6 6 8 9 9 9 10 9 8 8 7 8 9 9 8 8 8 8 8 7 7 8 8 8 9 8 7 8 8 7 6 6 6 7 7 7
5 5 4 5 4 4 8 10 8 8 8 6 4 4 4 5 7 9 8 9 8 7 6 5 2 3 3 4 7 10 13 17 17 15 13 11 11 10 10 8 7 7 7 6 6 8 9 10 9 7 6 6 7 8 8 8 8 7 6 5 4 4 5 5 4 5 5 5 6 6 6 6 6 6 6 6 5 5 5 5 5 5 6 6 7 8
12 10 8 10 12 14 17 18 16 13 11 9 8 8 9 10 11 11 10 10 8 8 7 5 2 3 3 3 7 13 15 15 15 15 14 13 12 11 11 10 9 8 8 8 7 6 6 6 5 5 5 5 5 5 6 6 5 4 3 2 2 2 3 3 3 3 4 4 5 5 5 5 5 4 5 5 5 6 6 6 6 7 8 9 10 11
16 15 17 21 23 24 23 21 18 16 14 13 13 13 12 12 11 10 9 9 8 10 11 9 6 4 5 6 9 12 13 13 13 14 13 12 12 11 10 9 9 8 7 6 5 4 3 3 2 2 2 2 2 2 3 3 2 2 2 2 2 2 2 2 2 3 3 4 4 5 6 7 7 7 7 7 8 8 8 8 9 10 11 12 13 13
12 12 15 17 18 18 19 18 16 16 15 14 15 15 13 12 11 9 9 9 10 11 11 10 8 7 7 8 8 9 11 12 12 12 12 11 10 9 8 7 6 5 5 4 3 3 2 1 1 1 2 2 2 2 2 2 2 2 2 2 3 3 3 3 3 4 4 4 4 5 5 6 7 7 8 8 9 9 10 10 11 11 12 13 13 14
10 10 12 14 16 18 17 15 13 13 13 12 12 12 12 11 11 10 10 11 12 12 11 10 10 8 7 7 6 7 7 7 7 7 6 6 5 5 4 4 3 2 3 2 1 1 0 1 2 2 3 4 4 4 4 5 6 6 7 7 7 7 6 6 6 6 6 6 6 6 7 7 8 8 9 9 9 10 11 11 12 12 13 13 13 14
10 11 12 14 17 18 15 12 11 12 12 12 11 10 9 9 8 8 8 9 9 9 9 9 8 7 6 6 5 4 4 3 3 2 1 0 1 1 1 1 2 3 3 3 3 3 4 4 4 4 4 4 4 4 5 6 7 8 9 10 10 11 11 11 11 10 10 10 9 9 10 10 10 10 10 10 11 11 11 12 12 12 13 13 14 14
13 14 13 13 14 13 11 9 8 9 11 11 11 10 9 9 8 8 8 8 7 7 6 6 5 5 4 4 3 2 1 1 2 3 3 4 4 4 4 5 6 7 8 8 8 8 8 7 6 6 6 7 6 6 7 7 8 9 10 10 11 11 12 13 14 14 14 14 14 13 13 12 12 11 11 11 11 11 12 12 13 13 14 14 15 16
14 13 11 11 12 12 10 9 8 9 11 10 9 9 9 9 8 8 8 7 7 7 6 6 5 4 4 4 3 3 4 5 6 7 7 8 8 8 8 9 10 10 10 10 10 10 9 9 8 8 7 8 8 8 9 9 10 11 11 12 12 13 13 14 14 14 14 15 15 15 14 14 14 13 13 12 12 12 12 12 13 13 14 15 15 16
Wind_Direction
210 212 216 220 223 222 223 224 227 241 260 262 256 244 240 249 244 237 229 212 220 240 246 246 247 250 248 245 245 244 237 226 226 227 224 225 227 231 230 226 231 238 234 226 229 231 219 213 216 220 225 228 228 228 228 229 227 234 241 242 244 245 246 247 239 231 232 233 231 230 230 227 220 216 210 201 197 195 188 190 196 195 200 215 222 226
210 222 225 226 229 229 230 228 229 243 260 241 244 257 252 248 251 241 219 219 238 244 252 254 250 251 249 246 247 246 241 230 228 229 227 228 228 229 231 229 232 239 242 235 227 230 229 222 221 223 227 232 234 230 229 233 232 229 240 245 244 246 249 251 241 231 231 233 232 229 227 223 218 214 207 199 198 195 192 192 192 193 201 213 219 220
217 232 232 230 232 228 228 222 223 235 244 240 241 250 253 247 248 242 220 227 244 242 251 254 252 254 250 247 248 245 243 237 232 232 230 228 228 229 230 232 234 235 242 242 230 227 232 230 228 227 228 232 237 237 231 232 234 230 237 243 244 248 253 256 243 231 230 232 232 228 221 218 216 212 204 201 202 201 197 192 187 188 201 211 216 215
225 240 231 227 225 217 222 220 222 233 235 237 238 240 244 242 245 246 234 231 237 240 253 260 260 262 258 254 252 248 244 239 234 233 231 230 229 230 229 231 236 233 236 244 238 230 233 232 231 233 232 233 236 237 233 231 230 229 235 241 245 249 254 259 245 230 227 227 227 224 217 216 216 209 203 201 204 208 202 189 180 186 205 212 209 206
236 246 211 209 212 210 220 222 222 231 233 232 233 237 241 239 243 248 242 242 246 249 256 261 265 263 257 252 251 247 241 236 235 232 230 231 230 232 232 230 234 234 232 243 243 235 235 231 228 234 237 236 237 238 238 234 227 227 239 242 241 243 247 251 241 227 224 222 219 215 214 215 213 207 206 203 202 207 203 188 179 187 205 207 204 203
239 237 208 206 217 219 223 224 221 224 232 234 231 235 239 244 251 253 253 260 261 261 257 250 254 260 254 249 246 243 237 230 229 231 230 230 229 231 232 230 232 233 232 243 247 239 236 233 225 232 237 237 239 241 243 241 234 236 246 245 238 234 234 238 233 225 226 222 213 212 216 215 208 205 205 202 200 200 197 191 185 187 197 198 199 200
234 228 222 223 226 224 222 224 222 218 229 238 236 233 234 242 253 255 256 259 257 264 263 239 244 266 267 256 244 240 239 230 225 231 232 231 232 232 234 233 232 233 234 241 246 238 232 231 228 232 238 240 240 244 248 246 240 240 242 241 240 230 222 228 231 226 226 220 211 211 217 214 206 203 200 197 195 190 190 192 185 182 188 191 192 191
228 221 222 220 219 222 222 223 221 215 224 235 234 228 230 239 248 248 249 252 253 262 263 241 245 266 271 265 253 240 237 231 229 233 232 230 232 229 231 234 235 235 233 235 243 243 234 230 230 234 238 241 242 244 250 247 237 235 235 234 238 232 219 222 229 227 223 222 218 214 212 207 204 202 195 192 190 185 187 188 182 177 180 182 181 182
212 220 224 217 217 221 221 222 217 212 222 234 237 235 239 242 245 244 246 250 251 257 258 246 241 254 263 263 260 243 226 224 235 236 226 222 224 220 219 228 237 237 233 236 242 244 238 232 230 235 237 239 242 244 248 246 235 231 235 234 239 238 225 219 229 234 226 223 223 218 209 203 201 196 191 190 188 185 187 184 175 172 175 176 176 178
209 220 221 217 219 220 222 221 215 212 220 235 245 238 240 242 243 245 248 253 252 249 253 251 246 249 259 261 260 250 231 230 241 230 205 209 226 231 231 235 236 233 236 244 242 235 232 232 229 234 239 239 242 243 245 248 245 242 245 249 250 247 237 224 227 235 234 227 219 212 206 201 196 191 189 190 187 184 183 175 169 171 175 176 176 177
230 218 217 219 218 221 229 225 222 223 222 231 240 235 239 239 239 244 245 252 256 247 245 250 250 250 258 262 260 257 233 221 230 231 215 218 233 242 243 241 239 234 233 239 241 237 234 233 230 233 239 240 242 243 244 250 254 255 258 268 275 271 265 254 248 248 247 241 220 209 207 201 194 188 186 185 182 180 176 169 170 174 175 174 176 177
229 224 225 223 216 216 225 223 222 223 220 227 233 234 238 231 228 236 236 239 248 249 248 250 251 249 250 253 260 288 228 207 211 238 236 229 237 247 249 247 242 230 226 230 238 244 240 234 234 234 237 240 242 245 245 245 250 254 257 266 288 291 281 267 267 275 271 255 227 212 209 199 192 189 184 178 175 174 171 170 174 175 174 174 174 177
226 228 228 220 213 210 213 218 216 212 216 222 224 228 234 227 220 228 231 230 232 243 250 253 252 248 250 253 250 234 190 208 222 233 245 257 263 260 253 254 243 223 229 235 235 237 233 232 236 235 236 239 241 246 246 241 244 249 254 257 272 280 274 262 260 276 281 266 236 216 211 198 190 187 176 168 169 171 171 172 175 174 174 174 172 175
223 224 223 217 214 209 208 214 211 204 211 216 217 221 226 229 225 225 236 239 237 241 241 241 249 252 257 253 222 204 211 241 251 248 255 265 271 266 253 258 254 233 237 237 226 227 228 231 235 235 237 238 240 245 244 241 241 243 249 254 256 264 269 265 263 266 272 268 243 222 214 198 188 181 168 163 168 169 171 173 175 173 172 172 170 173
228 225 219 214 212 209 211 218 218 213 216 216 218 225 229 235 240 239 249 248 253 252 229 217 232 250 258 238 208 213 228 249 265 265 263 263 266 266 255 251 247 234 241 236 221 224 227 229 234 236 237 238 239 243 242 239 238 238 245 248 248 256 263 264 265 258 251 259 245 217 203 189 184 177 166 166 168 167 171 174 174 173 170 168 169 172
234 237 221 214 214 213 216 221 225 229 230 221 218 226 232 234 240 252 269 284 296 291 248 216 230 244 260 250 207 204 196 223 264 267 266 269 269 265 245 243 242 225 240 239 223 224 227 229 232 233 235 237 237 239 239 236 233 232 239 240 241 250 256 257 264 257 243 246 227 197 187 185 183 175 168 169 168 168 174 174 172 172 166 166 169 171
233 237 216 209 214 218 222 223 222 226 233 223 216 224 229 229 236 247 258 265 275 284 263 244 243 243 242 215 174 182 180 215 239 241 260 284 276 247 185 200 213 200 223 232 230 232 231 231 232 233 238 240 237 236 236 233 227 225 232 236 239 245 250 255 261 257 242 229 207 188 184 186 182 174 171 172 169 172 177 173 170 170 164 164 165 163
242 244 220 207 214 216 218 223 223 223 227 228 224 227 227 226 235 247 252 245 241 249 249 245 248 250 242 189 177 194 172 175 229 245 262 262 240 224 183 175 182 195 213 227 242 247 239 230 226 233 239 240 238 237 235 229 221 220 227 233 237 241 251 263 262 250 232 209 196 190 186 185 184 180 178 175 171 173 178 174 172 171 166 165 160 156
235 243 227 210 219 217 210 220 225 221 223 228 232 235 232 230 230 230 235 239 239 242 243 240 246 257 276 100 164 191 180 200 250 245 235 239 242 238 209 179 181 196 201 208 233 254 248 229 222 229 236 235 234 235 232 224 216 215 222 229 234 237 250 265 261 248 228 201 193 193 189 188 189 188 184 178 172 176 180 176 176 177 173 171 164 155
225 240 229 211 218 213 204 215 221 217 217 222 231 237 236 240 241 231 231 237 244 247 245 241 239 219 82 95 158 171 181 227 248 232 235 241 244 240 225 183 180 196 197 194 203 215 233 238 233 230 228 228 230 230 227 221 213 211 218 226 232 238 250 261 259 250 235 210 197 195 193 191 190 188 185 180 175 179 183 180 181 182 179 177 172 163
228 238 233 220 220 216 209 215 222 219 212 214 224 230 227 228 237 242 235 231 243 265 274 256 247 112 103 119 143 194 217 231 247 249 255 251 232 229 237 243 196 214 211 205 200 198 207 236 247 231 220 221 224 224 223 219 212 212 218 224 230 235 243 252 252 245 235 218 204 200 198 193 191 188 185 181 177 181 185 185 187 187 184 183 183 184
226 232 238 231 228 228 219 216 226 227 221 217 220 226 228 225 230 240 231 222 229 236 242 250 246 102 116 169 193 230 234 244 281 283 307 311 272 260 225 60 10 349 309 244 209 206 206 215 233 224 216 220 222 221 219 215 213 216 219 222 225 227 231 239 243 240 231 217 206 204 201 195 191 188 184 181 180 184 189 190 191 193 192 193 195 200
220 227 243 238 230 233 231 228 234 231 233 235 229 229 230 227 231 237 237 235 235 234 255 273 255 150 160 200 218 247 269 298 301 307 318 301 317 346 341 339 325 312 310 314 294 240 215 205 214 213 211 215 219 221 218 214 215 219 220 221 220 219 220 223 229 230 220 210 206 205 202 195 190 189 185 183 184 189 193 196 197 198 199 202 206 210
222 230 247 250 244 241 241 244 243 236 236 239 237 238 238 236 237 236 236 255 257 249 273 300 285 166 183 223 244 268 285 290 292 299 268 250 267 303 304 298 295 295 292 297 306 289 218 206 213 212 213 214 215 218 218 217 219 220 221 221 216 214 215 212 213 217 210 203 201 201 200 195 192 190 186 184 188 193 197 199 202 203 205 210 213 217
229 240 247 252 252 242 240 244 243 237 236 242 247 241 239 246 250 245 244 254 262 252 235 246 265 152 183 237 274 283 283 274 271 275 240 237 253 264 278 283 292 306 302 299 305 296 257 238 229 220 219 219 220 221 220 219 222 223 226 225 214 210 213 208 209 217 212 204 201 200 201 201 195 187 184 187 191 196 200 202 205 206 208 213 217 221
235 245 242 245 255 256 246 234 229 223 230 257 264 236 237 252 254 253 253 246 248 252 239 234 250 118 156 317 1 305 291 268 255 270 250 231 253 255 256 269 284 300 303 306 309 301 287 274 264 253 240 229 226 230 230 227 226 228 232 231 216 208 206 201 204 213 213 212 212 208 204 200 191 181 183 190 193 197 202 204 207 210 209 211 216 222
244 249 246 247 257 274 295 238 215 221 238 274 280 248 263 287 277 270 257 247 261 272 253 225 91 123 166 320 310 257 270 280 283 289 298 293 279 270 258 260 274 285 288 295 299 294 288 281 278 279 272 255 239 234 238 240 238 236 237 230 213 203 199 197 199 199 198 202 205 201 196 195 191 186 189 194 196 201 204 206 210 211 210 213 219 223
250 252 251 249 251 264 291 315 214 225 241 263 277 278 294 305 307 296 251 252 277 276 252 99 98 138 222 272 268 258 259 277 302 303 313 321 303 285 278 271 275 282 281 282 284 282 276 273 272 272 273 270 256 241 239 241 241 239 238 233 216 201 199 202 198 189 187 191 194 193 195 198 198 198 199 200 202 206 208 212 214 211 212 217 222 226
249 255 254 252 254 261 267 252 218 210 221 236 257 285 293 298 318 324 273 279 293 260 262 304 160 197 236 254 266 270 269 278 294 271 285 301 300 295 289 285 282 281 282 285 288 286 282 278 276 272 265 264 261 249 239 237 238 236 233 233 225 210 203 203 199 191 188 189 194 199 203 203 202 202 204 204 207 210 212 215 215 212 215 219 222 227
245 254 258 258 261 264 257 234 226 210 198 214 245 300 301 301 313 319 314 315 301 232 256 259 211 201 215 237 259 268 271 279 262 229 236 259 279 282 281 284 283 287 296 298 294 292 289 285 283 280 270 259 255 250 240 237 240 238 232 227 219 209 203 200 198 195 190 190 196 202 206 207 205 202 202 204 208 214 216 216 213 213 218 222 225 228
244 249 262 267 261 257 244 235 239 213 185 176 136 333 318 305 280 294 320 312 300 110 156 212 216 217 224 235 250 255 263 276 263 242 240 249 261 262 263 272 280 294 312 310 301 299 300 296 289 287 281 262 250 248 242 237 237 236 232 224 209 199 199 198 196 196 192 192 197 203 208 211 208 203 202 205 211 216 220 221 218 217 219 221 225 229
252 249 256 255 248 242 228 229 241 226 210 193 184 293 309 303 270 284 319 318 350 65 77 127 191 255 246 236 235 236 236 242 251 242 227 230 240 242 250 267 282 298 316 327 336 340 333 318 297 284 281 266 244 237 232 228 233 234 229 223 209 196 197 198 197 198 197 197 199 204 209 213 211 208 206 209 216 222 226 228 228 227 227 227 227 228
256 249 250 252 247 230 213 212 219 229 228 210 228 277 293 299 294 294 290 293 292 100 61 61 206 244 251 224 217 219 214 217 229 227 217 224 235 239 247 263 280 293 300 323 360 11 11 333 320 299 288 282 262 244 229 215 227 239 225 216 209 203 204 205 203 203 205 205 208 212 215 215 214 213 211 214 222 229 230 230 230 231 232 233 234 232
264 255 252 262 268 240 200 195 204 229 230 172 97 295 295 280 278 264 262 285 284 128 89 72 232 250 247 211 204 208 214 222 232 236 233 224 220 228 239 248 259 276 288 291 25 82 143 167 343 320 295 295 278 259 249 221 218 238 219 197 195 200 204 204 201 203 206 209 214 219 220 219 216 213 213 217 224 231 233 231 229 230 230 231 234 236
264 265 258 269 280 259 186 181 206 231 186 114 80 324 308 272 266 259 261 276 257 184 179 224 251 271 248 203 202 213 221 226 229 233 229 210 200 204 214 221 226 229 231 227 213 192 159 146 144 181 243 278 264 248 256 234 208 232 228 196 169 181 192 195 199 204 207 208 212 216 217 218 215 212 215 219 222 227 229 229 230 232 231 232 235 237
247 257 259 268 275 257 196 182 193 150 111 100 355 319 306 252 223 196 242 262 241 222 241 243 254 281 251 199 202 216 213 214 228 227 214 195 184 182 190 198 203 203 201 204 205 200 180 162 155 166 199 228 217 203 223 214 174 241 238 218 205 201 197 197 202 209 211 212 212 212 212 216 218 215 216 220 224 226 227 227 230 233 230 229 233 237
241 246 249 256 262 260 241 135 136 137 114 82 314 329 353 290 224 193 222 260 265 255 261 258 253 267 241 200 205 211 196 206 226 210 192 185 180 178 185 191 189 186 185 188 190 188 184 178 175 176 188 216 222 215 217 222 220 23 303 235 231 228 221 212 209 212 215 214 212 209 207 212 218 218 219 224 226 226 225 224 226 228 227 227 232 239
237 242 247 253 256 253 233 140 147 159 118 57 350 332 353 359 241 206 212 260 280 280 274 265 247 224 206 198 205 199 181 194 205 187 176 180 177 175 186 195 191 182 178 181 183 186 189 188 189 191 190 197 212 213 185 159 153 337 312 300 275 234 229 223 216 212 205 198 201 207 203 204 213 216 219 222 220 218 220 223 224 226 229 235 241 246
241 246 248 250 254 254 245 227 187 114 93 58 345 330 2 23 18 177 147 236 295 305 287 249 231 214 205 207 209 195 179 186 192 179 170 172 168 166 177 186 182 176 173 173 175 179 179 181 189 198 202 202 191 164 133 116 104 97 120 142 133 143 180 204 207 202 189 174 182 195 193 196 206 209 208 210 213 215 219 222 225 226 231 239 245 248
241 243 243 247 252 259 270 297 79 81 84 75 15 3 12 31 53 134 127 318 313 312 288 240 219 214 218 219 211 200 191 195 194 182 171 168 164 161 167 171 167 164 166 167 167 165 163 166 173 177 187 195 181 153 131 115 103 101 106 114 122 129 132 133 139 150 152 152 163 170 169 178 191 195 195 197 199 203 206 207 210 215 221 229 237 242
231 229 236 254 262 247 183 125 107 86 74 78 64 35 35 67 62 39 334 321 319 314 282 241 218 212 218 221 213 205 200 199 195 184 172 166 162 162 165 167 164 161 162 163 162 159 157 158 159 150 143 154 157 147 135 120 106 102 102 100 101 105 107 107 110 115 119 126 137 148 157 165 170 175 182 182 178 178 181 183 188 201 212 220 225 227
73 226 236 257 262 222 166 127 105 75 61 71 58 32 142 121 49 8 341 343 9 20 351 233 216 212 217 221 218 212 202 193 186 178 169 163 163 164 163 165 166 165 165 164 160 158 159 161 159 149 133 123 119 122 125 118 106 98 93 87 86 92 97 99 100 102 104 110 119 130 141 146 149 156 164 170 167 157 149 151 160 178 200 210 213 214
94 83 86 124 142 146 113 104 91 58 52 52 39 46 130 153 121 99 84 75 64 46 32 33 175 202 207 215 220 217 202 189 179 170 164 161 161 163 162 163 167 165 165 165 157 152 153 157 157 157 154 139 124 120 122 120 112 105 100 92 84 83 88 93 100 106 113 122 129 136 143 146 152 159 166 173 169 148 143 155 167 178 197 207 215 222
85 88 96 119 114 68 72 83 83 75 69 61 60 79 97 120 128 117 93 71 55 39 28 33 71 141 172 214 213 196 185 180 173 165 164 162 159 162 164 163 163 159 152 146 141 140 141 142 147 152 153 148 141 138 141 137 127 119 116 115 110 105 103 106 111 119 129 141 148 152 153 154 160 167 173 180 182 172 174 187 199 210 223 233 240 245
78 92 109 109 100 94 94 94 92 87 80 74 77 84 96 114 120 104 80 64 55 54 54 53 86 157 183 210 193 176 169 168 164 157 155 155 152 152 151 148 148 148 140 130 126 129 125 119 122 127 127 128 136 146 154 157 152 143 136 131 140 153 157 160 164 169 176 186 191 192 193 194 200 210 215 218 224 228 228 229 235 240 246 252 256 260
82 92 99 97 96 95 93 89 87 85 82 83 87 91 99 108 105 84 68 64 63 66 67 67 76 114 148 166 174 170 162 156 151 143 138 136 135 134 133 132 130 127 124 122 122 120 112 103 100 99 102 111 126 143 157 171 178 168 159 174 200 213 208 204 208 214 215 218 221 223 224 223 224 229 235 240 244 246 246 247 247 247 249 252 255 258
81 90 92 94 97 95 90 89 91 89 86 86 88 91 94 95 88 78 74 75 76 78 81 82 84 99 123 140 156 160 153 146 139 132 127 125 125 126 126 123 120 115 111 112 109 107 110 134 237 265 271 270 271 273 268 261 263 262 262 256 249 241 238 236 236 240 244 247 251 251 250 248 246 246 248 249 251 251 251 251 251 251 251 252 253 255
91 87 84 92 100 99 97 99 98 94 91 87 85 88 89 87 85 84 79 77 78 80 83 87 90 95 103 113 127 137 136 128 120 117 118 116 115 115 111 109 111 103 97 99 107 118 150 212 227 244 263 272 278 284 286 284 284 284 282 282 280 276 271 268 263 260 258 258 260 263 263 262 261 260 258 258 259 258 258 257 256 256 256 256 257 257
97 97 94 97 100 99 98 99 95 92 90 86 82 82 79 74 77 79 74 75 77 77 77 80 83 86 90 97 108 117 120 114 109 111 110 50 25 11 10 2 347 341 333 319 295 279 276 268 254 252 261 266 270 275 277 278 281 282 282 283 284 283 282 279 276 274 271 269 268 267 266 265 263 262 261 260 261 261 263 263 263 263 263 263 263 264
100 102 103 102 101 102 104 103 99 98 97 92 88 84 75 66 69 72 67 64 64 65 66 64 59 59 58 52 51 40 351 303 287 286 283 278 282 287 289 291 298 303 302 297 290 284 280 274 265 260 260 262 264 265 265 264 264 265 268 271 273 275 277 276 276 275 275 275 274 274 272 272 271 269 268 267 266 266 267 267 268 269 268 268 268 269
99 100 106 109 109 108 109 107 106 106 106 101 93 88 82 76 76 76 73 70 65 60 55 47 41 42 35 27 27 6 338 328 319 313 308 297 291 293 297 298 299 300 298 294 289 286 284 280 274 269 263 261 263 263 262 263 263 261 259 259 259 260 261 263 266 269 270 271 271 271 271 270 270 271 271 271 271 271 270 270 270 270 271 270 270 270
Height
3104 3104 3105 3105 3105 3106 3107 3107 3108 3107 3107 3106 3106 3105 3106 3106 3105 3105 3107 3108 3109 3110 3110 3110 3110 3110 3110 3110 3111 3111 3111 3112 3113 3114 3114 3115 3117 3118 3119 3119 3119 3117 3117 3117 3116 3115 3115 3115 3115 3117 3119 3119 3119 3119 3118 3119 3121 3121 3121 3121 3121 3122 3123 3123 3123 3124 3125 3126 3128 3130 3130 3132 3134 3134 3135 3136 3135 3136 3137 3139 3141 3143 3145 3147 3149 3150
3102 3102 3102 3103 3104 3104 3105 3106 3106 3106 3106 3107 3108 3107 3106 3106 3105 3104 3105 3107 3108 3109 3109 3109 3108 3108 3108 3109 3109 3109 3109 3109 3110 3112 3112 3113 3115 3116 3117 3117 3117 3116 3115 3115 3115 3112 3112 3112 3113 3115 3117 3118 3118 3118 3117 3117 3120 3121 3120 3120 3119 3120 3120 3121 3121 3122 3123 3124 3126 3128 3128 3130 3132 3132 3133 3134 3135 3135 3135 3137 3139 3142 3145 3145 3147 3148
3101 3100 3100 3101 3102 3103 3103 3104 3105 3105 3106 3108 3108 3108 3106 3105 3104 3103 3103 3105 3107 3107 3107 3107 3106 3106 3106 3107 3107 3107 3107 3107 3108 3109 3109 3110 3111 3113 3114 3115 3116 3116 3113 3112 3113 3112 3112 3112 3113 3115 3116 3116 3117 3116 3115 3115 3118 3120 3119 3119 3118 3118 3118 3118 3118 3119 3120 3122 3124 3125 3127 3128 3129 3130 3132 3134 3135 3135 3135 3136 3138 3141 3144 3145 3146 3148
3099 3097 3097 3099 3100 3101 3102 3103 3104 3104 3105 3106 3107 3106 3105 3103 3103 3101 3101 3104 3106 3106 3105 3105 3104 3104 3104 3104 3104 3104 3104 3105 3105 3106 3107 3107 3108 3109 3111 3112 3113 3114 3111 3110 3111 3111 3111 3112 3112 3113 3114 3115 3115 3114 3113 3114 3116 3118 3118 3118 3117 3117 3117 3116 3116 3117 3118 3119 3121 3124 3126 3126 3128 3131 3133 3134 3136 3137 3136 3137 3138 3141 3144 3144 3146 3147
3096 3095 3095 3098 3098 3099 3101 3102 3103 3104 3104 3104 3104 3104 3103 3102 3101 3100 3102 3103 3104 3104 3103 3104 3102 3100 3100 3100 3099 3100 3100 3102 3103 3103 3104 3105 3106 3107 3108 3110 3111 3111 3110 3108 3109 3109 3108 3109 3110 3111 3112 3113 3112 3113 3112 3111 3114 3117 3117 3117 3117 3116 3116 3116 3116 3116 3117 3117 3119 3123 3125 3126 3129 3132 3133 3134 3136 3138 3138 3138 3140 3142 3143 3144 3146 3146
3095 3094 3094 3097 3098 3098 3100 3100 3101 3102 3102 3102 3102 3102 3102 3101 3100 3101 3102 3103 3102 3101 3100 3101 3098 3094 3095 3094 3094 3095 3096 3097 3100 3101 3102 3102 3103 3104 3105 3106 3107 3109 3109 3106 3106 3108 3106 3105 3106 3108 3110 3111 3111 3111 3110 3110 3113 3115 3114 3115 3116 3116 3116 3115 3115 3116 3116 3116 3119 3122 3123 3126 3130 3132 3133 3135 3137 3138 3139 3140 3141 3142 3143 3144 3145 3146
3093 3092 3092 3095 3097 3097 3098 3099 3099 3100 3100 3100 3099 3099 3100 3101 3101 3101 3102 3102 3100 3098 3097 3098 3096 3092 3091 3090 3090 3093 3093 3094 3097 3098 3099 3100 3101 3102 3103 3104 3104 3106 3107 3104 3102 3105 3106 3102 3103 3105 3107 3108 3109 3109 3108 3109 3111 3112 3111 3112 3114 3116 3116 3115 3114 3115 3115 3115 3118 3120 3122 3125 3129 3131 3133 3135 3136 3137 3139 3141 3141 3142 3143 3144 3145 3146
3091 3091 3091 3094 3095 3096 3096 3096 3097 3098 3099 3098 3097 3098 3099 3100 3100 3100 3101 3100 3098 3097 3095 3096 3097 3093 3090 3088 3089 3091 3092 3093 3095 3096 3097 3098 3099 3099 3100 3101 3102 3103 3105 3103 3099 3101 3103 3101 3100 3103 3105 3106 3106 3106 3107 3106 3106 3107 3109 3112 3113 3114 3114 3113 3112 3113 3114 3114 3116 3118 3121 3124 3126 3129 3132 3134 3135 3137 3138 3141 3141 3142 3143 3144 3145 3146
3090 3091 3091 3093 3094 3094 3094 3095 3095 3097 3097 3096 3096 3097 3098 3099 3099 3099 3099 3097 3097 3097 3093 3092 3095 3092 3088 3088 3087 3088 3090 3092 3093 3094 3095 3095 3094 3094 3095 3097 3099 3101 3102 3100 3097 3097 3099 3098 3099 3101 3103 3104 3104 3104 3104 3102 3103 3106 3109 3112 3113 3112 3112 3112 3112 3111 3112 3114 3115 3117 3120 3122 3125 3128 3131 3133 3134 3136 3138 3141 3142 3142 3143 3144 3145 3146
3088 3090 3091 3091 3092 3092 3093 3094 3094 3095 3096 3096 3096 3096 3097 3097 3097 3098 3097 3096 3095 3094 3090 3090 3092 3089 3085 3086 3086 3087 3088 3090 3091 3091 3091 3090 3091 3092 3093 3094 3095 3098 3100 3096 3093 3094 3097 3097 3099 3100 3100 3101 3101 3102 3101 3101 3104 3107 3110 3113 3114 3113 3112 3113 3114 3113 3113 3114 3116 3118 3119 3121 3124 3127 3129 3131 3133 3135 3137 3139 3141 3141 3142 3143 3144 3145
3086 3087 3089 3090 3090 3091 3091 3092 3093 3093 3094 3095 3095 3095 3096 3096 3096 3096 3095 3095 3093 3089 3087 3088 3089 3087 3084 3083 3086 3086 3086 3088 3089 3088 3087 3088 3089 3090 3091 3092 3093 3097 3098 3093 3087 3089 3094 3096 3097 3098 3098 3098 3099 3099 3102 3104 3105 3106 3110 3113 3115 3115 3114 3114 3115 3115 3115 3116 3118 3119 3120 3121 3123 3126 3129 3131 3133 3134 3135 3137 3139 3140 3141 3143 3144 3145
3085 3086 3087 3087 3088 3089 3090 3090 3091 3092 3093 3093 3094 3094 3094 3092 3093 3093 3093 3094 3091 3086 3085 3086 3086 3085 3082 3082 3085 3085 3085 3087 3088 3087 3086 3087 3088 3088 3089 3090 3092 3095 3094 3089 3086 3087 3091 3093 3094 3095 3095 3096 3096 3099 3103 3105 3104 3105 3108 3110 3113 3115 3114 3112 3113 3115 3116 3117 3118 3119 3120 3121 3123 3126 3128 3130 3131 3133 3134 3136 3139 3140 3141 3142 3143 3145
3083 3084 3085 3086 3086 3087 3088 3088 3089 3090 3091 3092 3092 3092 3090 3088 3090 3090 3088 3088 3086 3083 3083 3083 3083 3082 3080 3081 3083 3084 3085 3086 3086 3086 3085 3085 3086 3086 3087 3088 3089 3090 3088 3087 3086 3087 3089 3091 3092 3092 3093 3094 3096 3099 3102 3103 3103 3105 3106 3107 3111 3114 3113 3111 3112 3114 3114 3115 3117 3119 3120 3121 3122 3124 3126 3128 3130 3131 3133 3136 3139 3140 3141 3142 3143 3144
3080 3082 3083 3084 3084 3084 3085 3086 3086 3087 3088 3089 3089 3089 3087 3085 3088 3089 3086 3084 3081 3080 3081 3083 3083 3081 3080 3081 3081 3082 3084 3084 3084 3084 3084 3084 3084 3084 3085 3085 3085 3085 3084 3085 3086 3086 3088 3089 3089 3091 3092 3093 3095 3099 3100 3101 3103 3104 3105 3106 3109 3111 3111 3111 3112 3113 3113 3113 3115 3118 3118 3119 3121 3123 3125 3127 3129 3131 3134 3137 3139 3140 3141 3142 3143 3144
3077 3078 3079 3080 3081 3081 3082 3083 3083 3084 3085 3086 3086 3086 3084 3083 3084 3085 3083 3083 3081 3079 3079 3081 3082 3081 3080 3079 3079 3081 3082 3082 3082 3083 3082 3082 3082 3082 3083 3083 3083 3083 3082 3083 3085 3086 3087 3087 3087 3089 3091 3093 3095 3098 3099 3100 3102 3103 3104 3105 3105 3108 3110 3109 3110 3111 3112 3112 3115 3116 3116 3118 3120 3122 3125 3126 3127 3130 3134 3137 3138 3139 3140 3141 3143 3144
3075 3075 3076 3078 3079 3080 3081 3081 3083 3083 3083 3083 3084 3084 3083 3082 3083 3083 3082 3082 3083 3081 3078 3078 3080 3079 3079 3079 3079 3081 3081 3081 3082 3081 3080 3080 3080 3081 3081 3081 3081 3082 3082 3083 3084 3085 3085 3085 3086 3089 3091 3092 3093 3096 3097 3099 3101 3102 3102 3103 3103 3105 3108 3108 3108 3108 3110 3112 3113 3115 3117 3118 3120 3122 3124 3126 3127 3130 3134 3136 3137 3139 3140 3141 3143 3144
3073 3073 3075 3076 3077 3079 3079 3080 3081 3081 3081 3081 3081 3081 3080 3082 3083 3082 3082 3082 3084 3083 3079 3078 3078 3077 3078 3079 3079 3080 3081 3080 3079 3079 3079 3079 3080 3080 3080 3080 3081 3082 3082 3083 3083 3084 3084 3085 3087 3088 3089 3090 3092 3094 3095 3097 3099 3100 3100 3101 3101 3103 3106 3107 3107 3108 3109 3110 3111 3114 3116 3118 3120 3121 3123 3125 3126 3130 3134 3135 3137 3138 3139 3141 3142 3144
3073 3073 3073 3075 3076 3077 3078 3079 3079 3079 3080 3079 3079 3079 3079 3081 3081 3081 3081 3081 3082 3081 3078 3075 3075 3074 3076 3078 3079 3080 3080 3079 3078 3078 3079 3079 3079 3079 3080 3080 3080 3081 3081 3082 3082 3082 3082 3084 3085 3086 3088 3089 3090 3092 3094 3095 3097 3097 3098 3099 3099 3102 3104 3105 3106 3107 3108 3109 3110 3112 3114 3117 3119 3120 3123 3125 3126 3129 3133 3135 3136 3138 3139 3141 3142 3143
3073 3072 3072 3073 3075 3075 3077 3078 3077 3077 3078 3078 3078 3078 3078 3078 3078 3080 3080 3080 3080 3078 3075 3073 3073 3074 3076 3078 3079 3080 3079 3079 3078 3078 3078 3078 3078 3078 3078 3079 3079 3080 3080 3081 3081 3081 3082 3082 3082 3084 3086 3087 3088 3090 3092 3093 3094 3095 3095 3096 3098 3100 3102 3103 3104 3106 3107 3109 3110 3111 3113 3115 3117 3119 3123 3125 3126 3129 3132 3134 3136 3138 3139 3140 3141 3142
3072 3071 3070 3072 3073 3074 3076 3076 3074 3074 3075 3077 3077 3077 3077 3076 3076 3076 3077 3077 3077 3074 3072 3071 3071 3073 3077 3078 3078 3078 3078 3078 3078 3078 3077 3077 3077 3077 3077 3078 3078 3079 3079 3079 3079 3080 3081 3081 3081 3082 3084 3086 3086 3088 3090 3091 3092 3093 3093 3094 3095 3098 3100 3101 3102 3104 3106 3108 3109 3110 3112 3114 3116 3119 3123 3125 3126 3128 3131 3133 3135 3137 3138 3139 3140 3141
3072 3071 3070 3070 3072 3073 3073 3073 3072 3072 3073 3075 3075 3075 3076 3075 3075 3075 3074 3075 3075 3073 3073 3072 3070 3072 3075 3077 3078 3077 3076 3077 3076 3076 3075 3075 3076 3075 3076 3076 3077 3078 3078 3078 3079 3080 3080 3081 3081 3081 3082 3084 3084 3086 3088 3089 3090 3091 3091 3091 3093 3095 3096 3098 3100 3102 3104 3106 3107 3109 3110 3113 3116 3119 3122 3124 3125 3128 3131 3132 3134 3136 3137 3139 3140 3141
3070 3069 3069 3069 3070 3071 3071 3071 3072 3072 3072 3072 3072 3072 3073 3073 3073 3073 3071 3072 3073 3074 3075 3072 3071 3075 3076 3076 3078 3077 3075 3076 3075 3074 3074 3074 3074 3074 3075 3075 3076 3077 3078 3079 3079 3079 3080 3080 3080 3081 3082 3082 3083 3084 3086 3087 3088 3089 3089 3089 3090 3091 3093 3095 3097 3100 3102 3104 3106 3108 3110 3113 3116 3119 3121 3123 3125 3127 3130 3132 3133 3135 3136 3137 3139 3140
3067 3068 3068 3068 3069 3070 3070 3070 3071 3071 3071 3071 3070 3070 3070 3070 3071 3069 3068 3070 3071 3070 3070 3068 3068 3074 3076 3075 3076 3076 3074 3075 3074 3074 3074 3074 3074 3074 3074 3075 3076 3077 3078 3078 3079 3079 3079 3079 3079 3080 3081 3081 3082 3083 3084 3085 3086 3086 3086 3086 3086 3087 3090 3093 3096 3098 3099 3102 3104 3107 3109 3112 3115 3119 3121 3123 3125 3127 3129 3131 3132 3133 3135 3136 3137 3138
3066 3068 3067 3067 3069 3070 3069 3069 3070 3071 3071 3070 3069 3069 3068 3068 3068 3068 3069 3072 3070 3067 3068 3070 3071 3074 3076 3075 3074 3073 3073 3073 3073 3074 3074 3073 3074 3074 3074 3075 3075 3077 3078 3078 3078 3078 3078 3078 3078 3079 3079 3080 3080 3081 3082 3083 3083 3082 3082 3082 3082 3085 3088 3092 3094 3095 3096 3099 3102 3105 3109 3111 3115 3118 3120 3122 3124 3126 3128 3129 3130 3132 3133 3135 3136 3137
3066 3067 3067 3067 3067 3068 3068 3068 3068 3069 3070 3069 3068 3067 3067 3067 3068 3067 3068 3071 3070 3067 3069 3073 3076 3076 3076 3074 3073 3072 3072 3072 3072 3073 3073 3073 3073 3074 3074 3075 3075 3076 3076 3077 3077 3076 3076 3076 3077 3078 3079 3079 3079 3079 3079 3079 3079 3078 3078 3079 3080 3083 3087 3091 3093 3093 3094 3096 3099 3103 3107 3110 3113 3116 3118 3120 3122 3124 3126 3127 3128 3130 3132 3133 3134 3136
3065 3065 3066 3066 3066 3067 3068 3065 3065 3067 3067 3067 3067 3066 3067 3069 3068 3067 3067 3068 3067 3066 3067 3069 3073 3075 3075 3074 3073 3072 3071 3072 3072 3072 3073 3073 3073 3073 3074 3074 3074 3075 3075 3075 3075 3075 3075 3075 3075 3076 3077 3077 3078 3078 3078 3078 3077 3077 3078 3079 3080 3082 3086 3091 3091 3090 3092 3095 3098 3101 3104 3108 3111 3113 3116 3118 3120 3122 3124 3125 3126 3128 3130 3131 3133 3134
3065 3065 3065 3066 3066 3068 3068 3064 3064 3066 3066 3067 3068 3068 3069 3069 3067 3066 3067 3066 3065 3066 3067 3067 3069 3073 3075 3074 3073 3072 3071 3071 3071 3072 3072 3072 3073 3073 3073 3073 3074 3074 3074 3074 3074 3074 3074 3074 3074 3075 3075 3075 3076 3077 3078 3079 3078 3078 3078 3079 3080 3082 3085 3087 3088 3089 3092 3095 3098 3101 3104 3107 3109 3111 3113 3117 3119 3121 3122 3123 3125 3126 3128 3130 3131 3133
3065 3065 3066 3066 3066 3067 3067 3065 3065 3066 3066 3067 3068 3068 3069 3069 3067 3067 3067 3066 3066 3066 3067 3068 3069 3071 3073 3074 3073 3072 3071 3072 3072 3071 3072 3072 3072 3072 3072 3072 3072 3073 3073 3073 3073 3073 3073 3073 3073 3073 3073 3073 3074 3075 3076 3077 3077 3076 3076 3078 3080 3083 3083 3083 3085 3087 3090 3093 3096 3100 3103 3105 3107 3110 3113 3115 3117 3119 3120 3122 3124 3125 3126 3128 3130 3131
3065 3065 3066 3066 3065 3065 3066 3066 3066 3066 3066 3067 3067 3068 3068 3068 3067 3067 3066 3066 3067 3067 3067 3067 3068 3069 3071 3073 3072 3072 3072 3072 3072 3072 3072 3072 3072 3072 3071 3071 3071 3072 3072 3072 3072 3072 3072 3072 3071 3071 3071 3071 3071 3073 3073 3073 3073 3073 3074 3075 3079 3081 3081 3081 3082 3085 3087 3090 3094 3098 3101 3103 3106 3109 3111 3113 3115 3117 3119 3120 3122 3123 3124 3126 3128 3129
3064 3065 3065 3065 3064 3064 3064 3065 3066 3065 3066 3066 3066 3066 3066 3066 3066 3066 3065 3066 3066 3067 3067 3067 3067 3068 3070 3071 3071 3071 3071 3071 3072 3072 3072 3072 3072 3072 3071 3071 3071 3071 3071 3071 3071 3070 3070 3069 3069 3068 3068 3068 3069 3070 3070 3071 3071 3072 3073 3073 3075 3078 3079 3079 3081 3082 3085 3088 3091 3095 3099 3102 3104 3106 3108 3110 3113 3115 3117 3118 3120 3121 3122 3124 3125 3126
3063 3064 3064 3063 3063 3062 3063 3064 3065 3065 3065 3065 3065 3064 3064 3065 3065 3064 3065 3065 3066 3067 3068 3068 3068 3069 3069 3070 3070 3071 3070 3071 3071 3072 3072 3072 3072 3071 3071 3071 3070 3071 3071 3071 3070 3070 3069 3068 3067 3067 3066 3066 3067 3067 3067 3068 3069 3070 3071 3072 3074 3076 3076 3077 3079 3081 3084 3087 3090 3093 3096 3099 3101 3103 3105 3107 3110 3112 3114 3116 3117 3119 3120 3121 3123 3124
3062 3063 3063 3063 3062 3062 3062 3063 3064 3064 3065 3064 3063 3063 3063 3064 3064 3065 3065 3065 3066 3067 3069 3069 3069 3068 3069 3069 3069 3070 3070 3070 3070 3071 3071 3072 3071 3071 3071 3070 3070 3071 3071 3071 3070 3070 3069 3068 3067 3067 3066 3065 3065 3066 3065 3065 3067 3068 3068 3069 3073 3075 3075 3075 3077 3079 3082 3085 3088 3090 3092 3095 3098 3100 3102 3104 3107 3109 3111 3113 3114 3116 3117 3119 3120 3122
3062 3062 3062 3062 3061 3060 3061 3062 3063 3064 3064 3064 3063 3063 3063 3063 3064 3065 3065 3065 3066 3067 3068 3069 3069 3068 3068 3068 3069 3069 3070 3070 3070 3071 3071 3071 3071 3071 3071 3070 3070 3071 3071 3071 3071 3070 3070 3069 3068 3067 3066 3066 3065 3066 3065 3065 3067 3067 3066 3066 3070 3073 3075 3076 3076 3078 3080 3083 3085 3087 3089 3092 3095 3097 3099 3101 3104 3106 3108 3110 3112 3113 3115 3117 3118 3119
3062 3062 3062 3061 3060 3059 3059 3061 3062 3063 3063 3063 3063 3063 3063 3063 3063 3064 3064 3065 3066 3067 3068 3068 3067 3067 3067 3068 3068 3069 3070 3070 3070 3070 3071 3071 3071 3070 3070 3070 3071 3071 3072 3072 3072 3071 3071 3070 3069 3068 3067 3066 3065 3065 3066 3066 3067 3068 3066 3065 3067 3070 3073 3075 3075 3076 3079 3081 3084 3086 3088 3091 3093 3095 3097 3099 3101 3103 3105 3107 3109 3111 3112 3114 3115 3116
3061 3061 3061 3061 3061 3060 3059 3059 3061 3062 3062 3063 3063 3063 3063 3063 3063 3063 3063 3064 3065 3066 3067 3067 3067 3067 3067 3067 3068 3069 3069 3070 3070 3070 3070 3070 3070 3070 3070 3070 3071 3071 3072 3072 3072 3072 3071 3071 3070 3069 3068 3067 3067 3066 3067 3067 3068 3067 3065 3065 3066 3069 3072 3074 3075 3076 3078 3080 3082 3084 3087 3090 3091 3093 3096 3097 3099 3101 3102 3104 3106 3107 3109 3111 3113 3114
3060 3060 3060 3060 3061 3060 3059 3058 3060 3061 3062 3063 3063 3063 3063 3063 3063 3063 3063 3063 3064 3066 3066 3066 3066 3066 3066 3067 3068 3068 3069 3069 3070 3070 3070 3070 3070 3070 3070 3070 3070 3071 3071 3072 3072 3072 3072 3071 3071 3070 3069 3069 3068 3068 3068 3068 3068 3067 3065 3065 3066 3069 3071 3073 3074 3075 3077 3079 3081 3083 3085 3087 3089 3091 3094 3095 3097 3098 3100 3102 3104 3104 3106 3109 3110 3111
3059 3059 3060 3060 3060 3060 3059 3058 3060 3061 3062 3063 3063 3063 3063 3063 3063 3063 3063 3063 3064 3065 3065 3065 3066 3065 3065 3066 3067 3068 3068 3069 3069 3069 3069 3070 3070 3070 3071 3071 3071 3071 3071 3071 3072 3072 3072 3072 3071 3071 3070 3070 3069 3069 3068 3068 3068 3067 3066 3066 3067 3068 3070 3072 3073 3075 3076 3077 3079 3080 3083 3085 3086 3088 3091 3093 3094 3096 3097 3100 3101 3102 3104 3106 3107 3108
3057 3058 3059 3059 3059 3060 3060 3060 3060 3060 3062 3063 3063 3062 3062 3062 3062 3063 3063 3064 3064 3064 3064 3065 3065 3065 3065 3066 3066 3067 3068 3068 3068 3069 3069 3070 3070 3070 3071 3071 3071 3071 3072 3072 3072 3073 3073 3072 3072 3072 3071 3070 3070 3070 3069 3069 3069 3068 3067 3067 3068 3068 3069 3071 3072 3074 3075 3076 3078 3079 3081 3083 3085 3087 3089 3090 3092 3094 3096 3097 3099 3101 3103 3104 3105 3106
3056 3057 3058 3059 3059 3059 3060 3059 3059 3059 3062 3063 3063 3062 3062 3062 3062 3062 3063 3064 3064 3063 3064 3064 3064 3064 3065 3065 3065 3066 3066 3067 3068 3068 3069 3070 3070 3070 3070 3071 3071 3071 3071 3072 3072 3073 3073 3073 3073 3073 3072 3071 3070 3070 3070 3070 3070 3069 3069 3069 3069 3070 3070 3070 3071 3073 3075 3076 3078 3079 3080 3082 3084 3086 3087 3089 3091 3093 3095 3096 3098 3100 3101 3102 3103 3104
3055 3056 3058 3058 3058 3058 3059 3060 3060 3061 3062 3063 3062 3062 3062 3062 3062 3063 3063 3063 3063 3063 3063 3063 3064 3064 3064 3065 3065 3065 3066 3067 3068 3068 3068 3069 3069 3069 3070 3070 3070 3070 3071 3071 3072 3072 3073 3073 3073 3073 3072 3071 3071 3070 3070 3070 3071 3071 3071 3071 3071 3071 3071 3071 3072 3074 3075 3077 3078 3079 3080 3082 3084 3086 3087 3089 3090 3092 3094 3095 3097 3098 3099 3100 3102 3102
3055 3056 3056 3057 3057 3057 3058 3060 3061 3062 3063 3062 3062 3063 3063 3063 3063 3064 3064 3064 3063 3062 3062 3062 3063 3064 3064 3064 3065 3065 3066 3067 3067 3068 3067 3068 3068 3068 3069 3069 3069 3069 3070 3070 3071 3072 3073 3073 3073 3073 3073 3072 3072 3071 3070 3071 3071 3072 3072 3073 3073 3073 3073 3073 3074 3075 3076 3077 3078 3080 3081 3082 3084 3085 3087 3088 3089 3091 3092 3094 3095 3097 3098 3099 3101 3101
3054 3055 3056 3056 3056 3057 3057 3058 3060 3062 3063 3063 3063 3063 3064 3064 3065 3065 3065 3064 3064 3063 3062 3062 3062 3063 3064 3065 3065 3066 3066 3067 3067 3068 3068 3068 3069 3069 3069 3069 3069 3069 3069 3069 3069 3070 3071 3072 3073 3074 3073 3073 3072 3072 3072 3072 3072 3072 3073 3074 3074 3074 3074 3074 3075 3076 3077 3078 3079 3080 3081 3083 3084 3086 3087 3088 3089 3090 3091 3093 3094 3096 3097 3098 3099 3100
3054 3055 3056 3056 3057 3057 3057 3058 3060 3063 3064 3063 3063 3064 3064 3065 3065 3066 3065 3065 3064 3064 3063 3063 3063 3063 3064 3065 3065 3066 3067 3067 3067 3068 3069 3069 3069 3070 3070 3071 3071 3071 3070 3070 3070 3070 3070 3072 3073 3073 3074 3074 3073 3073 3074 3074 3074 3074 3074 3075 3075 3076 3076 3076 3076 3077 3078 3079 3080 3081 3082 3083 3085 3086 3087 3088 3089 3089 3090 3092 3093 3095 3096 3097 3098 3098
3055 3056 3057 3057 3057 3058 3059 3061 3064 3065 3065 3064 3065 3065 3065 3065 3066 3066 3066 3066 3065 3065 3064 3064 3064 3064 3065 3066 3066 3067 3067 3068 3068 3069 3069 3070 3070 3071 3071 3072 3072 3072 3072 3072 3072 3072 3072 3073 3073 3074 3074 3074 3074 3075 3075 3075 3075 3075 3076 3076 3077 3077 3078 3078 3079 3079 3079 3080 3081 3082 3083 3083 3084 3086 3087 3088 3088 3089 3090 3091 3092 3094 3095 3096 3097 3097
3058 3058 3058 3058 3059 3060 3061 3064 3066 3067 3067 3067 3066 3066 3066 3066 3067 3067 3067 3067 3066 3066 3066 3066 3066 3066 3066 3067 3067 3068 3068 3069 3069 3069 3070 3070 3071 3071 3072 3072 3072 3073 3072 3073 3073 3073 3073 3073 3074 3074 3075 3075 3075 3076 3076 3076 3076 3077 3077 3077 3077 3078 3078 3079 3080 3080 3080 3081 3081 3082 3083 3084 3084 3085 3086 3087 3088 3089 3090 3091 3091 3092 3093 3094 3095 3096
3061 3061 3060 3061 3061 3062 3064 3067 3068 3068 3069 3069 3068 3068 3068 3068 3068 3069 3068 3068 3068 3067 3068 3068 3068 3068 3068 3069 3069 3070 3070 3070 3070 3070 3071 3071 3071 3072 3072 3072 3073 3073 3073 3073 3074 3074 3074 3074 3074 3075 3075 3075 3076 3076 3077 3077 3077 3077 3077 3078 3078 3078 3079 3079 3079 3080 3080 3081 3081 3082 3083 3083 3084 3085 3086 3086 3087 3088 3089 3089 3090 3091 3092 3093 3093 3094
3063 3063 3063 3063 3064 3065 3067 3070 3071 3071 3071 3071 3070 3070 3070 3070 3070 3070 3070 3070 3070 3070 3070 3070 3070 3070 3071 3071 3071 3071 3071 3071 3071 3071 3072 3072 3072 3073 3073 3073 3074 3074 3074 3074 3075 3075 3075 3075 3075 3075 3076 3076 3076 3076 3076 3077 3077 3077 3078 3078 3078 3079 3079 3079 3080 3080 3080 3081 3081 3082 3082 3083 3083 3084 3085 3085 3086 3087 3087 3088 3089 3090 3090 3091 3091 3092
3066 3066 3066 3066 3067 3068 3070 3072 3073 3073 3073 3073 3073 3072 3072 3072 3072 3072 3072 3072 3072 3072 3072 3072 3073 3073 3073 3073 3073 3073 3073 3073 3073 3073 3074 3074 3074 3074 3074 3075 3075 3075 3075 3076 3076 3076 3076 3076 3076 3076 3076 3076 3076 3076 3076 3076 3076 3076 3077 3077 3078 3078 3079 3079 3080 3080 3080 3081 3081 3082 3082 3083 3083 3083 3084 3084 3085 3085 3086 3087 3087 3088 3088 3089 3089 3090
3068 3069 3069 3070 3070 3071 3073 3075 3075 3075 3075 3075 3075 3074 3074 3074 3074 3074 3074 3074 3074 3074 3074 3074 3074 3075 3074 3074 3075 3075 3075 3075 3075 3075 3075 3075 3076 3076 3076 3076 3076 3076 3076 3076 3077 3077 3077 3077 3077 3077 3077 3077 3077 3077 3077 3076 3076 3076 3076 3076 3077 3077 3077 3078 3078 3079 3079 3080 3080 3081 3081 3082 3082 3082 3083 3083 3084 3084 3084 3085 3085 3086 3086 3087 3087 3087
3071 3071 3072 3073 3074 3075 3076 3077 3077 3077 3077 3077 3077 3076 3076 3076 3076 3076 3076 3076 3076 3076 3076 3076 3076 3076 3076 3076 3076 3075 3076 3076 3076 3076 3076 3076 3076 3076 3076 3076 3076 3076 3077 3077 3077 3077 3077 3077 3077 3076 3076 3077 3077 3077 3077 3077 3077 3077 3077 3076 3077 3077 3077 3077 3077 3077 3078 3078 3079 3079 3079 3080 3080 3081 3081 3081 3082 3082 3082 3083 3083 3083 3083 3084 3084 3084
3073 3073 3074 3075 3076 3076 3077 3078 3078 3077 3077 3078 3078 3078 3078 3078 3078 3078 3078 3077 3077 3077 3077 3077 3077 3077 3077 3077 3077 3076 3076 3076 3076 3076 3076 3076 3076 3076 3076 3076 3076 3076 3076 3076 3076 3076 3076 3076 3076 3076 3076 3076 3076 3076 3076 3076 3076 3076 3076 3076 3076 3076 3076 3076 3076 3077 3077 3077 3077 3077 3078 3078 3078 3079 3079 3079 3080 3080 3080 3080 3080 3081 3081 3081 3081 3081